AAL44JP TBPB-TLPL

Flight info

Callsign AAL44JP
Flight time 0h 28m
Altitude 14000
Route BGI DCT BNE
Aircraft A321/M-SDE3FGHIRWY/LB1

Departure

Time 2026-04-22 21:17
Airport Grantley Adams International Airport (TBPB)

Arrival

Time 2026-04-22 21:46
Airport Hewanorra International Airport (TLPL)
Time Latitude Longitude Altitude Speed Heading
2026-04-22 20:56 13.07885 -59.48755 176 ft 0 kts 346°
2026-04-22 21:07 13.07872 -59.48752 176 ft 3 kts 346°
2026-04-22 21:07 13.07853 -59.48747 175 ft 3 kts 346°
2026-04-22 21:07 13.07835 -59.48743 175 ft 3 kts 346°
2026-04-22 21:08 13.07823 -59.48739 175 ft 3 kts 346°
2026-04-22 21:08 13.07801 -59.48731 175 ft 3 kts 328°
2026-04-22 21:08 13.07785 -59.48721 175 ft 3 kts 299°
2026-04-22 21:08 13.07781 -59.48709 175 ft 0 kts 273°
2026-04-22 21:11 13.07781 -59.48717 175 ft 4 kts 270°
2026-04-22 21:11 13.07759 -59.48760 175 ft 10 kts 234°
2026-04-22 21:11 13.07727 -59.48845 176 ft 16 kts 257°
2026-04-22 21:12 13.07694 -59.48973 176 ft 21 kts 256°
2026-04-22 21:12 13.07659 -59.49120 176 ft 22 kts 256°
2026-04-22 21:12 13.07623 -59.49271 176 ft 22 kts 256°
2026-04-22 21:12 13.07584 -59.49427 176 ft 23 kts 255°
2026-04-22 21:13 13.07544 -59.49587 176 ft 23 kts 256°
2026-04-22 21:13 13.07503 -59.49751 176 ft 24 kts 256°
2026-04-22 21:13 13.07462 -59.49915 176 ft 24 kts 256°
2026-04-22 21:13 13.07423 -59.50086 176 ft 25 kts 256°
2026-04-22 21:14 13.07380 -59.50257 176 ft 25 kts 256°
2026-04-22 21:14 13.07337 -59.50431 176 ft 25 kts 256°
2026-04-22 21:14 13.07295 -59.50603 176 ft 19 kts 256°
2026-04-22 21:14 13.07240 -59.50721 175 ft 13 kts 206°
2026-04-22 21:15 13.07228 -59.50725 175 ft 0 kts 194°
2026-04-22 21:16 13.07226 -59.50725 175 ft 2 kts 191°
2026-04-22 21:16 13.07159 -59.50717 175 ft 18 kts 165°
2026-04-22 21:16 13.07121 -59.50627 175 ft 13 kts 76°
2026-04-22 21:17 13.07177 -59.50395 177 ft 68 kts 76°
2026-04-22 21:17 13.07349 -59.49696 175 ft 132 kts 76°
2026-04-22 21:17 13.07610 -59.48618 212 ft 175 kts 76°
2026-04-22 21:17 13.07889 -59.47417 928 ft 170 kts 76°
2026-04-22 21:18 13.08178 -59.46241 1666 ft 169 kts 75°
2026-04-22 21:18 13.08756 -59.45182 2166 ft 183 kts 45°
2026-04-22 21:18 13.09966 -59.44593 2464 ft 209 kts
2026-04-22 21:18 13.11419 -59.45009 2815 ft 229 kts 324°
2026-04-22 21:19 13.12368 -59.46335 3364 ft 235 kts 298°
2026-04-22 21:19 13.13072 -59.47922 3715 ft 255 kts 293°
2026-04-22 21:19 13.13754 -59.49661 4074 ft 272 kts 292°
2026-04-22 21:19 13.14449 -59.51492 4788 ft 277 kts 292°
2026-04-22 21:20 13.15157 -59.53340 5550 ft 279 kts 292°
2026-04-22 21:20 13.15882 -59.55194 6274 ft 281 kts 292°
2026-04-22 21:20 13.16627 -59.57072 7016 ft 284 kts 292°
2026-04-22 21:20 13.17376 -59.58937 7704 ft 287 kts 292°
2026-04-22 21:21 13.18149 -59.60838 8377 ft 290 kts 293°
2026-04-22 21:21 13.18933 -59.62757 9035 ft 293 kts 293°
2026-04-22 21:21 13.19725 -59.64698 9656 ft 296 kts 293°
2026-04-22 21:21 13.20518 -59.66643 10195 ft 303 kts 293°
2026-04-22 21:22 13.21360 -59.68710 10324 ft 324 kts 292°
2026-04-22 21:22 13.22254 -59.70910 10453 ft 343 kts 292°
2026-04-22 21:22 13.23201 -59.73245 10626 ft 359 kts 292°
2026-04-22 21:22 13.24168 -59.75632 11082 ft 365 kts 292°
2026-04-22 21:23 13.25141 -59.78035 11657 ft 368 kts 292°
2026-04-22 21:23 13.26124 -59.80458 12279 ft 369 kts 291°
2026-04-22 21:23 13.27116 -59.82897 12877 ft 371 kts 292°
2026-04-22 21:23 13.28118 -59.85361 13419 ft 374 kts 292°
2026-04-22 21:24 13.29123 -59.87841 13799 ft 377 kts 292°
2026-04-22 21:24 13.30129 -59.90334 13911 ft 384 kts 291°
2026-04-22 21:24 13.31179 -59.92933 13929 ft 400 kts 292°
2026-04-22 21:24 13.32242 -59.95562 13927 ft 406 kts 292°
2026-04-22 21:25 13.33331 -59.98248 13923 ft 407 kts 292°
2026-04-22 21:25 13.34422 -60.00938 13931 ft 408 kts 292°
2026-04-22 21:25 13.35511 -60.03623 13932 ft 408 kts 292°
2026-04-22 21:25 13.36605 -60.06318 13934 ft 408 kts 292°
2026-04-22 21:26 13.37697 -60.09015 13941 ft 409 kts 292°
2026-04-22 21:26 13.38785 -60.11703 13933 ft 408 kts 292°
2026-04-22 21:26 13.39881 -60.14411 13933 ft 409 kts 292°
2026-04-22 21:26 13.40957 -60.17073 13932 ft 409 kts 292°
2026-04-22 21:27 13.42045 -60.19772 13934 ft 408 kts 292°
2026-04-22 21:27 13.43132 -60.22471 13933 ft 408 kts 292°
2026-04-22 21:27 13.44220 -60.25170 13935 ft 408 kts 292°
2026-04-22 21:27 13.45308 -60.27868 13932 ft 408 kts 292°
2026-04-22 21:28 13.46398 -60.30571 13882 ft 404 kts 292°
2026-04-22 21:28 13.47448 -60.33172 13627 ft 391 kts 292°
2026-04-22 21:28 13.48476 -60.35721 13377 ft 382 kts 292°
2026-04-22 21:28 13.49492 -60.38247 13127 ft 380 kts 291°
2026-04-22 21:29 13.50356 -60.40788 12892 ft 376 kts 282°
2026-04-22 21:29 13.50833 -60.43428 12640 ft 375 kts 279°
2026-04-22 21:29 13.51271 -60.46029 12389 ft 373 kts 279°
2026-04-22 21:29 13.51711 -60.48656 12143 ft 372 kts 279°
2026-04-22 21:30 13.52149 -60.51273 11909 ft 371 kts 279°
2026-04-22 21:30 13.52588 -60.53887 11649 ft 369 kts 279°
2026-04-22 21:30 13.53026 -60.56500 11398 ft 369 kts 279°
2026-04-22 21:30 13.53458 -60.59093 11147 ft 368 kts 279°
2026-04-22 21:31 13.53884 -60.61652 10900 ft 368 kts 279°
2026-04-22 21:31 13.54313 -60.64243 10645 ft 367 kts 279°
2026-04-22 21:31 13.54741 -60.66831 10395 ft 363 kts 279°
2026-04-22 21:31 13.55153 -60.69333 10144 ft 351 kts 279°
2026-04-22 21:32 13.55553 -60.71765 9899 ft 339 kts 279°
2026-04-22 21:32 13.55939 -60.74123 9649 ft 329 kts 279°
2026-04-22 21:32 13.56314 -60.76422 9398 ft 320 kts 279°
2026-04-22 21:32 13.56676 -60.78655 9148 ft 312 kts 279°
2026-04-22 21:33 13.57023 -60.80799 8890 ft 300 kts 279°
2026-04-22 21:33 13.57358 -60.82874 8637 ft 292 kts 279°
2026-04-22 21:33 13.57688 -60.84927 8388 ft 290 kts 279°
2026-04-22 21:33 13.58015 -60.86970 8138 ft 289 kts 279°
2026-04-22 21:34 13.58342 -60.89009 7888 ft 288 kts 279°
2026-04-22 21:34 13.58664 -60.91021 7642 ft 288 kts 279°
2026-04-22 21:34 13.58989 -60.93052 7395 ft 287 kts 279°
2026-04-22 21:34 13.59311 -60.95066 7143 ft 284 kts 279°
2026-04-22 21:35 13.59631 -60.97077 6904 ft 283 kts 279°
2026-04-22 21:35 13.59948 -60.99073 6656 ft 282 kts 279°
2026-04-22 21:35 13.60257 -61.01054 6398 ft 280 kts 279°
2026-04-22 21:35 13.60564 -61.03012 6150 ft 279 kts 279°
2026-04-22 21:36 13.60872 -61.04987 5911 ft 279 kts 279°
2026-04-22 21:36 13.61178 -61.06950 5660 ft 278 kts 279°
2026-04-22 21:36 13.61483 -61.08916 5413 ft 278 kts 279°
2026-04-22 21:36 13.61785 -61.10879 5164 ft 277 kts 279°
2026-04-22 21:37 13.62083 -61.12828 4927 ft 276 kts 279°
2026-04-22 21:37 13.62380 -61.14782 4672 ft 276 kts 279°
2026-04-22 21:37 13.62670 -61.16705 4432 ft 275 kts 279°
2026-04-22 21:37 13.62960 -61.18646 4181 ft 275 kts 279°
2026-04-22 21:38 13.63248 -61.20586 3938 ft 274 kts 279°
2026-04-22 21:38 13.63536 -61.22536 3690 ft 274 kts 279°
2026-04-22 21:38 13.63817 -61.24445 3441 ft 273 kts 279°
2026-04-22 21:38 13.64128 -61.26371 3182 ft 271 kts 286°
2026-04-22 21:39 13.64942 -61.28086 3014 ft 267 kts 311°
2026-04-22 21:39 13.66356 -61.29302 3003 ft 266 kts 335°
2026-04-22 21:39 13.68117 -61.29827 3001 ft 263 kts 358°
2026-04-22 21:39 13.69886 -61.29585 3005 ft 261 kts 22°
2026-04-22 21:40 13.71427 -61.28619 3007 ft 259 kts 45°
2026-04-22 21:40 13.72460 -61.27114 3005 ft 259 kts 68°
2026-04-22 21:40 13.72862 -61.25325 3006 ft 260 kts 83°
2026-04-22 21:40 13.73076 -61.23481 3001 ft 257 kts 83°
2026-04-22 21:41 13.73281 -61.21708 2997 ft 241 kts 84°
2026-04-22 21:41 13.73321 -61.20028 3014 ft 232 kts 89°
2026-04-22 21:41 13.73322 -61.18370 3001 ft 230 kts 89°
2026-04-22 21:41 13.73326 -61.16730 3006 ft 229 kts 89°
2026-04-22 21:42 13.73333 -61.15111 3006 ft 229 kts 89°
2026-04-22 21:42 13.73338 -61.13470 3008 ft 229 kts 89°
2026-04-22 21:42 13.73339 -61.11830 2931 ft 230 kts 89°
2026-04-22 21:42 13.73339 -61.10197 2588 ft 227 kts 89°
2026-04-22 21:43 13.73337 -61.08581 2306 ft 224 kts 89°
2026-04-22 21:43 13.73336 -61.06992 1997 ft 219 kts 90°
2026-04-22 21:43 13.73334 -61.05447 1733 ft 210 kts 90°
2026-04-22 21:43 13.73334 -61.04015 1453 ft 190 kts 90°
2026-04-22 21:44 13.73335 -61.02758 1221 ft 166 kts 90°
2026-04-22 21:44 13.73337 -61.01651 1004 ft 148 kts 90°
2026-04-22 21:44 13.73338 -61.00624 816 ft 142 kts 89°
2026-04-22 21:44 13.73346 -60.99614 609 ft 140 kts 90°
2026-04-22 21:45 13.73343 -60.98615 394 ft 139 kts 90°
2026-04-22 21:45 13.73337 -60.97619 239 ft 140 kts 90°
2026-04-22 21:45 13.73340 -60.96611 93 ft 141 kts 90°
2026-04-22 21:45 13.73337 -60.95648 31 ft 116 kts 90°
2026-04-22 21:46 13.73342 -60.95170 28 ft 19 kts 68°
2026-04-22 21:46 13.73389 -60.95152 29 ft 8 kts 353°
2026-04-22 21:46 13.73465 -60.95157 27 ft 11 kts 357°
2026-04-22 21:46 13.73542 -60.95152 28 ft 11 kts 360°
2026-04-22 21:47 13.73620 -60.95133 28 ft 6 kts 20°
2026-04-22 21:47 13.73628 -60.95130 28 ft 0 kts 20°